Weather History for Albuquerque, NM

Change the Weather History Date:

Monday, September 23, 2013

  Actual Average Record
Temperature  
Mean Temperature 61 °F 67 °F  
Max Temperature 73 °F 78 °F 90 °F (1910)
Min Temperature 48 °F 55 °F 30 °F (1912)
Degree Days  
Heating Degree Days 4 2  
Month to date heating degree days 4 10  
Since 1 July heating degree days 4 10  
Cooling Degree Days 0 3  
Month to date cooling degree days 181 141  
Year to date cooling degree days 1556 1298  
Growing Degree Days 11 (Base 50)    
Moisture  
Dew Point 34 °F    
Average Humidity 46    
Maximum Humidity 71    
Minimum Humidity 20    
Precipitation  
Precipitation 0.00 in 0.04 in 1.72 in (1929)
Month to date precipitation 3.97 0.82  
Year to date precipitation 7.86 7.10  
Snow  
Snow 0.00 in - - ()
Month to date snowfall 0.0  
Since 1 July snowfall 0.0  
Since 1 September snowfall 0.0  
Snow Depth 0.00 in    
Sea Level Pressure  
Sea Level Pressure 29.87 in    
Wind  
Wind Speed 8 mph (NW)    
Max Wind Speed 23 mph    
Max Gust Speed 28 mph    
Visibility 10 miles    
Events      
T = Trace of Precipitation, MM = Missing Value Source: NWS Daily Summary

Daily Weather History Graph

Daily Weather History Graph

Search for Another Location

Airport:

Trip Planner

Search our weather history database for the weather conditions in past years. The results will help you decide how hot, cold, wet, or windy it might be!

Date:

Astronomy

Sep. 23, 2013 Rise Set
Actual Time 6:55 AM MDT 7:01 PM MDT
Civil Twilight 6:30 AM MDT 7:26 PM MDT
Nautical Twilight 6:00 AM MDT 7:56 PM MDT
Astronomical Twilight 5:30 AM MDT 8:25 PM MDT
Moon 9:46 PM MDT (9/23) 11:06 AM MDT (9/23)
Length of Visible Light 12h 56m
Length of Day
12h 05m
Waning Gibbous, 81% of the Moon is Illuminated
Sep 23
Waning Gibbous
Sep 26
Last Quarter
Oct 4
New
Oct 11
First Quarter
Oct 18
Full

Hourly Weather History & Observations

Time (MDT) Temp. Dew Point Humidity Pressure Visibility Wind Dir Wind Speed Gust Speed Precip Events Conditions
12:52 AM 59.0 °F 33.1 °F 38% 29.70 in 10.0 mi WNW 16.1 mph - N/A   Partly Cloudy
1:52 AM 57.0 °F 30.9 °F 37% 29.72 in 10.0 mi West 8.1 mph - N/A   Clear
2:52 AM 55.0 °F 30.9 °F 40% 29.72 in 10.0 mi West 3.5 mph - N/A   Clear
3:52 AM 54.0 °F 33.1 °F 45% 29.74 in 10.0 mi Calm Calm - N/A   Clear
4:52 AM 48.9 °F 39.0 °F 69% 29.76 in 10.0 mi SE 5.8 mph - N/A   Clear
5:52 AM 50.0 °F 39.0 °F 66% 29.79 in 10.0 mi SE 5.8 mph - N/A   Clear
6:52 AM 52.0 °F 35.1 °F 53% 29.84 in 10.0 mi SSW 4.6 mph - N/A   Clear
7:52 AM 51.1 °F 39.0 °F 63% 29.87 in 10.0 mi Calm Calm - N/A   Clear
8:52 AM 55.0 °F 36.0 °F 49% 29.88 in 10.0 mi Calm Calm - N/A   Clear
9:52 AM 57.0 °F 36.0 °F 45% 29.90 in 10.0 mi WSW 4.6 mph - N/A   Clear
10:52 AM 62.1 °F 37.9 °F 41% 29.88 in 10.0 mi Variable 3.5 mph - N/A   Clear
11:52 AM 64.9 °F 37.0 °F 36% 29.87 in 10.0 mi West 4.6 mph - N/A   Partly Cloudy
12:52 PM 68.0 °F 36.0 °F 31% 29.87 in 10.0 mi NW 12.7 mph 18.4 mph N/A   Partly Cloudy
1:52 PM 70.0 °F 33.1 °F 26% 29.86 in 10.0 mi NW 17.3 mph 23.0 mph N/A   Partly Cloudy
2:52 PM 71.1 °F 32.0 °F 24% 29.86 in 10.0 mi NNW 16.1 mph 23.0 mph N/A   Partly Cloudy
3:52 PM 72.0 °F 30.9 °F 22% 29.86 in 10.0 mi NW 11.5 mph 24.2 mph N/A   Clear
4:52 PM 73.0 °F 30.0 °F 20% 29.88 in 10.0 mi NNW 16.1 mph - N/A   Clear
5:52 PM 72.0 °F 28.9 °F 20% 29.90 in 10.0 mi NNW 17.3 mph - N/A   Clear
6:52 PM 70.0 °F 30.0 °F 23% 29.92 in 10.0 mi NNW 15.0 mph - N/A   Clear
7:52 PM 66.9 °F 30.9 °F 26% 29.96 in 10.0 mi NNW 11.5 mph - N/A   Clear
8:52 PM 64.9 °F 30.9 °F 28% 29.99 in 10.0 mi NNW 10.4 mph - N/A   Clear
9:52 PM 63.0 °F 33.1 °F 33% 30.01 in 10.0 mi North 6.9 mph - N/A   Clear
10:52 PM 62.1 °F 34.0 °F 35% 30.00 in 10.0 mi NW 8.1 mph - N/A   Clear
11:52 PM 60.1 °F 36.0 °F 41% 30.00 in 10.0 mi NNW 5.8 mph - N/A   Clear